[[{"header":{"parameterUnit":"m.s-1","parameterCategory":1,"la1":30.2991,"la2":30.254,"lo1":-89.0895,"lo2":-89.0444,"dy":0.0017,"dx":0.0017,"nx":28,"ny":28,"refTime":"2024-10-04T09:00:00:Z","depth":0,"parameterNumber":2,"parameterNumberName":"U-component_of_WINDS"},"data":[0,0,0,0,0,0,0,0,0,0,0,0,0,0,0,0,0,0,0,0,0,0,0,0,0,0,0,0,0,0,0,0,0,0,0,0,0,0,0,0,0,0,0,0,0,0,0,0,0,0,0,0,0,0,0,0,0,0,-6.788,-6.7882,0,-6.8096,-6.8098,-6.81,-6.7984,-6.7978,-6.7972,-6.7967,-6.8191,-6.8202,-6.8213,0,0,0,0,0,0,0,0,0,0,0,0,0,-6.7369,-6.7379,-6.788,-6.7883,-6.7885,-6.8095,-6.8098,-6.8101,-6.7985,-6.7978,-6.7971,-6.7964,-6.8187,-6.82,-6.8214,0,0,0,0,0,0,0,0,0,0,0,0,0,-6.7589,-6.7383,-6.7879,-6.7852,-6.7852,-6.8095,-6.8098,-6.8102,-6.7986,-6.7978,-6.7969,-6.7961,-6.8182,-6.8199,-6.8216,-6.8498,0,0,-6.8268,-6.8276,0,0,0,0,0,0,0,0,-6.7577,-6.7608,-6.7854,-6.7855,-6.7855,-6.8004,-6.8,-6.8235,-6.7989,-6.7936,-6.7966,-6.7956,-6.8136,-6.8156,-6.8216,-6.8509,-6.8518,-6.827,-6.828,-6.8288,-6.8293,0,0,0,0,0,0,0,-6.7562,-6.7598,-6.7965,-6.7857,-6.7858,-6.783,-6.7852,-6.8044,-6.8083,-6.794,-6.7932,-6.7959,-6.8134,-6.82,-6.822,-6.8521,-6.8269,-6.8285,-6.8295,-6.8302,-6.9056,-6.9065,0,0,0,0,0,0,-6.7548,-6.7586,-6.7958,-6.7972,-6.7691,-6.7847,-6.7871,-6.7965,-6.808,-6.8089,-6.7966,-6.7952,-6.8175,-6.8201,-6.8228,-6.8566,-6.8288,-6.8304,-6.8313,-6.9046,-6.9058,-6.9068,0,0,0,0,0,0,-6.7537,-6.7582,-6.795,-6.7777,-6.7821,-6.7865,-6.7972,-6.7974,-6.8039,-6.81,-6.8106,-6.8026,-6.8169,-6.8204,-6.8431,-6.8572,-6.8311,-6.8327,-6.9035,-6.905,-6.9063,-6.9244,0,0,0,0,0,0,-6.7523,-6.7579,-6.7686,-6.778,-6.7831,-6.815,-6.798,-6.7984,-6.8069,-6.8053,-6.8158,-6.8167,-6.8165,-6.8407,-6.8449,-6.8591,-6.834,-6.9022,-6.9041,-6.9059,-6.9226,-6.9263,-6.9295,0,0,0,0,0,-6.7505,-6.7729,-6.7692,-6.7738,-6.7966,-6.8158,-6.8187,-6.818,-6.808,-6.8189,-6.8228,-6.8163,-6.8549,-6.8431,-6.8477,-6.8627,-6.9013,-6.9036,-6.9057,-6.921,-6.9256,-6.9294,0,0,0,0,0,0,-6.7652,-6.7741,-6.7701,-6.7962,-6.8053,-6.8138,-6.8275,-6.8228,-6.835,-6.8331,-6.8316,-6.8341,-6.8578,-6.8625,-6.8491,-6.8906,-6.8766,-6.8798,-6.8867,-6.891,-6.8944,-6.8929,-6.8355,0,0,0,0,0,-6.7715,-6.7862,-6.7932,-6.8156,-6.8203,-6.8232,-6.8315,-6.8301,-6.8395,-6.8433,-6.8489,-6.8584,-6.8726,-6.8821,-6.8955,-6.9231,-6.9253,-6.9357,-6.9392,-6.942,-6.9448,-6.9598,-6.9645,-6.914,-6.914,-6.914,0,0,-6.7846,-6.7913,-6.8007,-6.8187,-6.8256,-6.841,-6.8265,-6.8434,-6.8548,-6.8459,-6.8678,-6.8722,-6.8826,-6.908,-6.9194,-6.9126,-6.9592,-6.9448,-6.947,-6.9483,-6.9625,-6.9673,-6.9716,-6.9155,-6.9153,-6.915,0,0,-6.8164,-6.8229,-6.8422,-6.8494,-6.86,-6.8617,-6.8663,-6.8755,-6.8781,-6.8999,-6.8936,-6.9072,-6.9317,-6.9395,-6.9466,-6.9812,-6.9758,-6.9856,-7.0038,-7.0184,-7.0224,-7.0259,-7.0383,-7.0428,-6.9884,-6.9885,-6.9885,0,-6.8314,-6.8543,-6.8528,-6.8702,-6.8783,-6.8708,-6.8904,-6.8975,-6.912,-6.9178,-6.9099,-6.9406,-6.9471,-6.9741,-6.9826,-6.9886,-6.9939,-6.9845,-7.0219,-7.0254,-7.0287,-7.0405,-7.0452,-6.9896,-6.9895,-6.9894,-6.9893,0,-6.8722,-6.8882,-6.9025,-6.9166,-6.9263,-6.9448,-6.9461,-6.9562,-6.9539,-6.9564,-6.9788,-6.9863,-7.0012,-7.0074,-7.0054,-7.0343,-7.0297,-7.0219,-7.0079,-7.0347,-7.0458,-7.0503,-6.9912,-6.9908,-6.9905,-6.9902,0,0,-6.9141,-6.9269,-6.9323,-6.9385,-6.9496,-6.9619,-6.98,-6.9944,-7.0031,-7.0133,-7.0285,-7.0494,-7.0422,-7.0503,-7.0491,-7.062,-7.089,-7.0526,-7.0528,-7.0592,-7.1212,-7.1271,-7.1324,-7.0853,-7.0862,-7.0869,-7.1204,0,-6.9466,-6.9782,-6.9773,-7.0067,-7.0214,-7.0145,-7.0302,-7.0387,-7.0416,-7.0545,-7.0577,-7.0726,-7.0619,-7.0668,-7.0792,-7.0831,-7.1014,-7.0806,-7.0996,-7.1003,-7.0973,-7.1381,-7.1444,-7.1757,-7.1247,-7.1254,-7.1259,0,-6.9889,-7.0004,-7.0312,-7.04,-7.0462,-7.0604,-7.0735,-7.0859,-7.0955,-7.0966,-7.1057,-7.1024,-7.1208,-7.1062,-7.1315,-7.1174,-7.1251,-7.1282,-7.1294,-7.1312,-7.1148,-7.1412,-7.1856,-7.1904,-7.1327,-7.1322,-7.1317,0,-7.0164,-7.0396,-7.061,-7.0666,-7.0774,-7.0875,-7.0925,-7.1012,-7.1099,-7.1213,-7.127,-7.1405,-7.148,-7.1585,-7.159,-7.1483,-7.1847,-7.1701,-7.1863,-7.1863,-7.1944,-7.1939,-7.2408,-7.1992,-7.1991,-7.199,-7.1989,0,-7.053,-7.0721,-7.0735,-7.0867,-7.108,-7.1068,-7.1279,-7.1319,-7.1397,-7.1536,-7.1484,-7.1615,-7.1613,-7.1748,-7.1753,-7.1963,-7.1996,-7.2012,-7.2011,-7.2017,-7.2016,-7.2068,-7.2047,-7.2003,-7.2,-7.1997,-7.1995,0,-7.0873,-7.089,-7.1119,-7.1202,-7.1228,-7.1381,-7.1452,-7.1578,-7.1601,-7.1778,-7.1818,-7.1855,-7.2011,-7.2025,-7.2206,-7.221,-7.2464,-7.2439,-7.2432,-7.2428,-7.2589,-7.2574,-7.3109,-7.3179,-7.2717,-7.2721,-7.2725,0,-7.1106,-7.1252,-7.135,-7.1438,-7.1494,-7.1638,-7.1726,-7.172,-7.1814,-7.1933,-7.2045,-7.2195,-7.2314,-7.2566,-7.261,-7.2748,-7.2727,-7.2905,-7.2747,-7.2749,-7.2731,-7.2722,-7.2737,-7.2936,-7.2941,-7.2945,-7.2948,0,-7.1517,-7.1518,-7.1646,-7.1779,-7.1885,-7.1989,-7.2086,-7.2161,-7.2167,-7.2276,-7.2433,-7.2526,-7.271,-7.286,-7.2995,-7.3047,-7.3001,-7.2997,-7.3042,-7.3051,-7.3041,-7.3049,-7.2516,-7.2985,-7.2982,-7.2979,-7.2977,-7.2975,-7.1813,-7.1939,-7.2028,-7.2173,-7.2244,-7.2336,-7.2458,-7.2496,-7.2627,-7.2775,-7.2764,-7.2939,-7.303,-7.3206,-7.3269,-7.3406,-7.3346,-7.3411,-7.3428,-7.3444,-7.3461,-7.3018,-7.343,-7.3429,-7.3428,-7.3427,-7.3426,0,-7.2223,-7.2276,-7.2409,-7.2545,-7.266,-7.2603,-7.2707,-7.2807,-7.296,-7.3049,-7.3167,-7.3349,-7.3494,-7.3548,-7.369,-7.3789,-7.3771,-7.3827,-7.382,-7.3833,-7.3506,-7.3453,-7.3839,-7.3839,-7.3839,-7.3839,-7.3839,-7.3838,-7.2449,-7.2659,-7.267,-7.2916,-7.2967,-7.3137,-7.3202,-7.3286,-7.3357,-7.3561,-7.3681,-7.3715,-7.379,-7.3936,-7.4067,-7.4079,-7.4134,-7.42,-7.4203,-7.3897,-7.3856,-7.3816,-7.3767,-7.4212,-7.4212,-7.4519,-7.4522,-7.4524]},{"header":{"parameterUnit":"m.s-1","parameterCategory":1,"la1":30.2991,"la2":30.254,"lo1":-89.0895,"lo2":-89.0444,"dy":0.0017,"dx":0.0017,"nx":28,"ny":28,"refTime":"2024-10-04T09:00:00:Z","depth":0,"parameterNumber":3,"parameterNumberName":"V-component_of_WINDS"},"data":[0,0,0,0,0,0,0,0,0,0,0,0,0,0,0,0,0,0,0,0,0,0,0,0,0,0,0,0,0,0,0,0,0,0,0,0,0,0,0,0,0,0,0,0,0,0,0,0,0,0,0,0,0,0,0,0,0,0,-1.883,-1.883,0,-1.8858,-1.8858,-1.8859,-1.8859,-1.8858,-1.8858,-1.8858,-1.8886,-1.8887,-1.8888,0,0,0,0,0,0,0,0,0,0,0,0,0,-1.8774,-1.8775,-1.883,-1.883,-1.8831,-1.8858,-1.8858,-1.8859,-1.8859,-1.8858,-1.8858,-1.8857,-1.8886,-1.8887,-1.8888,0,0,0,0,0,0,0,0,0,0,0,0,0,-1.88,-1.8776,-1.883,-1.8834,-1.8835,-1.8858,-1.8858,-1.8859,-1.8859,-1.8858,-1.8858,-1.8857,-1.8885,-1.8887,-1.8888,-1.891,0,0,-1.8893,-1.8894,0,0,0,0,0,0,0,0,-1.8799,-1.8802,-1.8833,-1.8834,-1.8834,-1.8854,-1.8849,-1.8876,-1.8859,-1.885,-1.8858,-1.8857,-1.8876,-1.8878,-1.8885,-1.8911,-1.8912,-1.8893,-1.8894,-1.8895,-1.8896,0,0,0,0,0,0,0,-1.8797,-1.8801,-1.8841,-1.8833,-1.8834,-1.8834,-1.8837,-1.8854,-1.8865,-1.885,-1.885,-1.8854,-1.8876,-1.8883,-1.8885,-1.8913,-1.8893,-1.8895,-1.8896,-1.8897,-1.8956,-1.8957,0,0,0,0,0,0,-1.8794,-1.8799,-1.884,-1.8842,-1.8815,-1.8835,-1.8839,-1.8848,-1.8865,-1.8867,-1.8854,-1.8854,-1.8881,-1.8883,-1.8886,-1.8912,-1.8895,-1.8897,-1.8898,-1.8956,-1.8956,-1.8957,0,0,0,0,0,0,-1.8793,-1.8798,-1.8839,-1.8821,-1.8826,-1.8837,-1.8848,-1.8849,-1.8856,-1.8868,-1.887,-1.8859,-1.888,-1.8884,-1.8903,-1.8913,-1.8897,-1.8899,-1.8955,-1.8956,-1.8957,-1.8963,0,0,0,0,0,0,-1.8792,-1.8798,-1.8806,-1.8821,-1.8827,-1.8856,-1.8848,-1.885,-1.8859,-1.8859,-1.8874,-1.8875,-1.888,-1.8901,-1.8905,-1.8915,-1.89,-1.8954,-1.8955,-1.8956,-1.8962,-1.8964,-1.8966,0,0,0,0,0,-1.879,-1.8807,-1.8807,-1.8812,-1.8838,-1.8857,-1.886,-1.8865,-1.886,-1.8868,-1.8876,-1.8875,-1.8911,-1.8903,-1.8908,-1.8918,-1.8954,-1.8955,-1.8956,-1.8961,-1.8963,-1.8965,0,0,0,0,0,0,-1.8794,-1.8809,-1.8809,-1.8832,-1.8843,-1.8857,-1.8868,-1.8868,-1.8881,-1.888,-1.8885,-1.8889,-1.8908,-1.8915,-1.8906,-1.8938,-1.8931,-1.8934,-1.8934,-1.8936,-1.8938,-1.8936,-1.8902,0,0,0,0,0,-1.8797,-1.8812,-1.8824,-1.8843,-1.8849,-1.8857,-1.8866,-1.8868,-1.888,-1.8885,-1.8894,-1.8905,-1.8918,-1.8928,-1.8941,-1.8963,-1.8965,-1.8972,-1.8973,-1.8975,-1.8977,-1.8988,-1.8991,-1.8961,-1.8961,-1.8961,0,0,-1.8805,-1.8815,-1.8824,-1.8844,-1.8853,-1.8867,-1.8861,-1.8877,-1.8887,-1.8887,-1.8906,-1.8913,-1.8925,-1.8946,-1.8955,-1.8952,-1.8985,-1.8977,-1.8978,-1.8979,-1.899,-1.8992,-1.8995,-1.8962,-1.8962,-1.8962,0,0,-1.8826,-1.8835,-1.8852,-1.886,-1.8874,-1.8879,-1.8883,-1.8896,-1.8901,-1.892,-1.892,-1.8932,-1.8955,-1.8964,-1.8972,-1.8994,-1.8994,-1.8998,-1.9008,-1.9019,-1.9021,-1.9023,-1.9031,-1.9033,-1.9,-1.9,-1.9,0,-1.8834,-1.8855,-1.886,-1.8875,-1.8884,-1.8884,-1.89,-1.8908,-1.8925,-1.8931,-1.8927,-1.8956,-1.8964,-1.8986,-1.8992,-1.8998,-1.9002,-1.8997,-1.902,-1.9022,-1.9024,-1.9032,-1.9034,-1.9001,-1.9,-1.9,-1.9,0,-1.8864,-1.8879,-1.889,-1.8906,-1.8916,-1.8932,-1.8938,-1.8947,-1.8948,-1.8954,-1.8972,-1.8982,-1.8997,-1.9003,-1.9004,-1.9025,-1.9022,-1.9019,-1.9012,-1.9027,-1.9034,-1.9037,-1.9001,-1.9001,-1.9001,-1.9001,0,0,-1.889,-1.8907,-1.8911,-1.8918,-1.8932,-1.8943,-1.8958,-1.8972,-1.898,-1.8991,-1.9004,-1.9023,-1.902,-1.9028,-1.9031,-1.904,-1.9056,-1.9036,-1.9036,-1.9039,-1.9078,-1.9081,-1.9084,-1.9056,-1.9056,-1.9057,-1.9077,0,-1.8912,-1.8939,-1.8943,-1.8967,-1.898,-1.8979,-1.8992,-1.9001,-1.9006,-1.9018,-1.9023,-1.9037,-1.9032,-1.9037,-1.9046,-1.9052,-1.9064,-1.9051,-1.9067,-1.9067,-1.9064,-1.9088,-1.909,-1.9109,-1.908,-1.908,-1.9081,0,-1.8942,-1.8954,-1.8979,-1.899,-1.8995,-1.9007,-1.902,-1.9031,-1.9041,-1.9044,-1.9053,-1.9054,-1.9068,-1.906,-1.908,-1.9071,-1.9078,-1.9081,-1.9082,-1.9084,-1.9075,-1.909,-1.9116,-1.9118,-1.9085,-1.9085,-1.9084,0,-1.8958,-1.898,-1.8998,-1.9003,-1.9017,-1.9025,-1.903,-1.904,-1.9048,-1.9059,-1.9064,-1.9076,-1.9083,-1.9093,-1.9097,-1.909,-1.9116,-1.9109,-1.9119,-1.9118,-1.9125,-1.9124,-1.9152,-1.9128,-1.9128,-1.9128,-1.9128,0,-1.8983,-1.8998,-1.9005,-1.9016,-1.9032,-1.9035,-1.9052,-1.9057,-1.9065,-1.9077,-1.9077,-1.9087,-1.9092,-1.9103,-1.9106,-1.9121,-1.9125,-1.9127,-1.9128,-1.9127,-1.9127,-1.9132,-1.9131,-1.9129,-1.9129,-1.9129,-1.9129,0,-1.9004,-1.9009,-1.9028,-1.9039,-1.9041,-1.9053,-1.9062,-1.9072,-1.9076,-1.909,-1.9094,-1.91,-1.9113,-1.9118,-1.9134,-1.9136,-1.9154,-1.9153,-1.915,-1.9151,-1.916,-1.9159,-1.9192,-1.9196,-1.917,-1.9171,-1.9171,0,-1.902,-1.9032,-1.9043,-1.905,-1.9056,-1.9069,-1.9076,-1.9079,-1.9087,-1.9099,-1.9108,-1.912,-1.9131,-1.9151,-1.9157,-1.9169,-1.9169,-1.9179,-1.917,-1.9169,-1.9169,-1.9168,-1.9169,-1.9181,-1.9181,-1.9181,-1.9182,0,-1.9047,-1.9049,-1.906,-1.9072,-1.9081,-1.909,-1.91,-1.9105,-1.911,-1.9119,-1.9132,-1.914,-1.9155,-1.9167,-1.9179,-1.9185,-1.9184,-1.9184,-1.9187,-1.9187,-1.9185,-1.9186,-1.9155,-1.9184,-1.9183,-1.9183,-1.9183,-1.9183,-1.9066,-1.9076,-1.9085,-1.9097,-1.9104,-1.9112,-1.9122,-1.9127,-1.9138,-1.915,-1.9151,-1.9165,-1.9174,-1.9189,-1.9195,-1.9206,-1.9203,-1.9207,-1.9208,-1.9209,-1.921,-1.9183,-1.9208,-1.9208,-1.9208,-1.9208,-1.9208,0,-1.9093,-1.9099,-1.911,-1.9122,-1.9131,-1.9129,-1.9139,-1.9146,-1.9159,-1.9167,-1.9176,-1.9191,-1.9202,-1.9209,-1.922,-1.9227,-1.9227,-1.923,-1.923,-1.9231,-1.9212,-1.9208,-1.923,-1.923,-1.923,-1.923,-1.923,-1.923,-1.9109,-1.9125,-1.9127,-1.9146,-1.9151,-1.9165,-1.917,-1.9177,-1.9183,-1.9199,-1.9209,-1.9213,-1.922,-1.9231,-1.9242,-1.9243,-1.9247,-1.9251,-1.9252,-1.9235,-1.9232,-1.923,-1.9227,-1.9252,-1.9252,-1.927,-1.927,-1.927]}]]